Tracking 29510 objects as of 15-Sep-2024
HD Live streaming from Space Station
objects crossing your sky now

STARLINK-4188

Track STARLINK-4188 now!
10-day predictions
STARLINK-4188 is classified as:


NORAD ID: 52843
Int'l Code: 2022-062P
Perigee: 545.9 km
Apogee: 548.0 km
Inclination: 53.2 °
Period: 95.4 minutes
Semi major axis: 6917 km
RCS: Unknown
Launch date: June 17, 2022
Source: United States (US)
Launch site: AIR FORCE EASTERN TEST RANGE (AFETR)
Your satellite tracking list
Your tracking list is empty




NASA's NSSDC Master Catalog

Two Line Element Set (TLE):
1 52843U 22062P   24259.13545904 -.00002372  00000-0 -13103-3 0  9994
2 52843  53.2187 300.7654 0001530  85.8349 274.2818 15.08830420124674
Source of the keplerian elements: AFSPC